Location: ??????
(56.0120°N, 39.1740°E)
Time: 22:37:51
(UTC+00:00)

USA 229 DEB - Pass Details

Date: 14 April 2026
Orbit: 844 x 1364 km, 63.4° (Epoch: 10 January)

Event Time Altitude Azimuth Distance (km) Brightness Sun altitude
Rises 21:51:00 0° 306° (NW) 3,854 7.0 -24.1°
Reaches altitude 10° 21:53:31 10° 307° (NW) 2,968 6.4 -24.0°
Maximum altitude 22:00:43 84° 36° (NE) 1,221 3.9 -23.9°
Drops below altitude 10° 22:08:49 10° 126° (SE) 3,317 6.0 -23.6°
Sets 22:11:46 0° 127° (SE) 4,330 6.6 -23.6°
